TimePDT,TemperatureF,Dew PointF,Humidity,Sea Level PressureIn,VisibilityMPH,Wind Direction,Wind SpeedMPH,Gust SpeedMPH,PrecipitationIn,Events,Conditions,WindDirDegrees,DateUTC
12:53 AM,60.1,30.9,33,29.99,10.0,ENE,4.6,-,N/A,,Clear,60,2013-10-17 07:53:00
1:53 AM,59.0,32.0,36,29.99,10.0,ENE,4.6,-,N/A,,Clear,60,2013-10-17 08:53:00
2:53 AM,57.0,33.1,40,29.99,10.0,NE,4.6,-,N/A,,Clear,50,2013-10-17 09:53:00
3:53 AM,55.9,30.9,39,29.98,10.0,NE,5.8,-,N/A,,Clear,40,2013-10-17 10:53:00
4:53 AM,57.0,30.0,36,29.99,10.0,NE,5.8,-,N/A,,Clear,50,2013-10-17 11:53:00
5:53 AM,53.1,34.0,48,29.99,10.0,East,3.5,-,N/A,,Clear,90,2013-10-17 12:53:00
6:53 AM,54.0,30.9,41,30.00,10.0,NE,3.5,-,N/A,,Clear,50,2013-10-17 13:53:00
7:53 AM,55.0,34.0,45,30.01,10.0,Calm,Calm,-,N/A,,Clear,0,2013-10-17 14:53:00
8:53 AM,62.1,30.9,31,30.02,10.0,Calm,Calm,-,N/A,,Clear,0,2013-10-17 15:53:00
9:53 AM,69.1,30.9,24,30.01,10.0,Calm,Calm,-,N/A,,Clear,0,2013-10-17 16:53:00
10:53 AM,73.9,28.9,19,29.99,10.0,WSW,3.5,-,N/A,,Clear,240,2013-10-17 17:53:00
11:53 AM,78.1,24.1,14,29.97,10.0,WSW,4.6,-,N/A,,Clear,250,2013-10-17 18:53:00
12:53 PM,81.0,25.0,13,29.94,10.0,Variable,5.8,-,N/A,,Clear,0,2013-10-17 19:53:00
1:53 PM,82.9,23.0,11,29.90,10.0,Variable,5.8,-,N/A,,Clear,0,2013-10-17 20:53:00
2:53 PM,84.0,21.9,10,29.89,10.0,WNW,6.9,-,N/A,,Clear,290,2013-10-17 21:53:00
3:53 PM,82.9,28.9,14,29.88,10.0,West,11.5,16.1,N/A,,Clear,260,2013-10-17 22:53:00
4:53 PM,80.1,37.9,22,29.88,10.0,West,11.5,-,N/A,,Clear,270,2013-10-17 23:53:00
5:53 PM,75.9,34.0,22,29.89,10.0,WSW,10.4,18.4,N/A,,Clear,250,2013-10-18 00:53:00
6:53 PM,73.0,36.0,26,29.91,10.0,West,6.9,-,N/A,,Clear,260,2013-10-18 01:53:00
7:53 PM,70.0,39.0,32,29.92,10.0,Calm,Calm,-,N/A,,Clear,0,2013-10-18 02:53:00
8:53 PM,66.9,41.0,39,29.93,10.0,Calm,Calm,-,N/A,,Clear,0,2013-10-18 03:53:00
9:53 PM,66.0,42.1,42,29.94,10.0,Calm,Calm,-,N/A,,Clear,0,2013-10-18 04:53:00
10:53 PM,62.1,41.0,46,29.94,10.0,Calm,Calm,-,N/A,,Clear,0,2013-10-18 05:53:00
11:53 PM,60.1,42.1,51,29.94,10.0,Calm,Calm,-,N/A,,Clear,0,2013-10-18 06:53:00